Imperial, NE

1:47 AM MDT on June 25, 2017 (GMT -0600)
Imperial Municipal

Weather History for KIML - October, 2013

Change the Weather History Date:

Tuesday, October 15, 2013

  Actual Average Record
Temperature  
Mean Temperature 39 °F 51 °F  
Max Temperature 47 °F 65 °F 90 °F (1938)
Min Temperature 30 °F 37 °F 23 °F (1966)
Degree Days  
Heating Degree Days 26 14  
Month to date heating degree days 167 167  
Cooling Degree Days 0 0  
Month to date cooling degree days 0 3  
Year to date cooling degree days 1166 960  
Moisture  
Dew Point 30 °F    
Average Humidity 69    
Maximum Humidity 85    
Minimum Humidity 53    
Precipitation  
Precipitation 0.00 in 0.05 in 1.18 in (1915)
Sea Level Pressure  
Sea Level Pressure 30.22 in    
Wind  
Wind Speed 17 mph (NNW)    
Max Wind Speed 32 mph    
Max Gust Speed 40 mph    
Visibility 10 miles    
Events      
T = Trace of Precipitation, MM = Missing Value Source: NWS Daily Summary

Daily Weather History Graph

Daily Weather History Graph

Search for Another Location

Airport or City:

Trip Planner

Search our weather history database for the weather conditions in past years. The results will help you decide how hot, cold, wet, or windy it might be!

Date:

Astronomy

Oct. 15, 2013 Rise Set
Actual Time 6:57 AM MDT 6:05 PM MDT
Civil Twilight 6:30 AM MDT 6:33 PM MDT
Nautical Twilight 5:58 AM MDT 7:05 PM MDT
Astronomical Twilight 5:26 AM MDT 7:36 PM MDT
Moon 4:12 PM MDT (10/15) 3:21 AM MDT (10/15)
Length of Visible Light 12h 03m
Length of Day
11h 08m
Waxing Gibbous, 88% of the Moon is Illuminated
Oct 15
Waxing Gibbous
Oct 18
Full
Oct 26
Last Quarter
Nov 3
New
Nov 9
First Quarter

Hourly Weather History & Observations

Time (MDT) Temp. Windchill Dew Point Humidity Pressure Visibility Wind Dir Wind Speed Gust Speed Precip Events Conditions
12:53 AM 39.0 °F 28.5 °F 30.0 °F 70% 30.09 in 10.0 mi NW 23.0 mph 32.2 mph N/A   Clear
1:53 AM 37.9 °F 26.6 °F 30.0 °F 73% 30.09 in 10.0 mi NW 25.3 mph 33.4 mph N/A   Clear
2:53 AM 37.9 °F 27.3 °F 28.9 °F 70% 30.12 in 10.0 mi NW 21.9 mph 35.7 mph N/A   Clear
3:53 AM 37.0 °F 26.4 °F 28.9 °F 73% 30.14 in 10.0 mi NW 20.7 mph 32.2 mph N/A   Clear
4:53 AM 37.0 °F 27.4 °F 28.9 °F 73% 30.17 in 10.0 mi NW 17.3 mph 25.3 mph N/A   Clear
5:53 AM 37.0 °F 26.4 °F 28.9 °F 73% 30.18 in 10.0 mi NW 20.7 mph 28.8 mph N/A   Clear
6:53 AM 36.0 °F 25.0 °F 28.9 °F 76% 30.20 in 10.0 mi NW 20.7 mph 29.9 mph N/A   Clear
7:53 AM 37.0 °F 26.2 °F 28.9 °F 73% 30.22 in 10.0 mi NW 21.9 mph 31.1 mph N/A   Clear
8:53 AM 39.9 °F 29.5 °F 28.9 °F 65% 30.24 in 10.0 mi NW 24.2 mph 33.4 mph N/A   Clear
9:53 AM 42.1 °F 32.1 °F 30.0 °F 62% 30.26 in 10.0 mi NNW 25.3 mph 40.3 mph N/A   Clear
10:53 AM 45.0 °F 35.4 °F 30.9 °F 58% 30.25 in 10.0 mi NNW 28.8 mph 38.0 mph N/A   Mostly Cloudy
11:53 AM 45.0 °F 35.8 °F 30.9 °F 58% 30.26 in 10.0 mi NNW 26.5 mph 35.7 mph N/A   Mostly Cloudy
12:53 PM 46.0 °F 37.4 °F 30.9 °F 56% 30.25 in 10.0 mi North 25.3 mph 36.8 mph N/A   Mostly Cloudy
1:53 PM 45.0 °F 36.2 °F 30.0 °F 56% 30.24 in 10.0 mi NNW 24.2 mph 35.7 mph N/A   Overcast
2:53 PM 44.1 °F 35.4 °F 28.9 °F 55% 30.24 in 10.0 mi NNW 21.9 mph 29.9 mph N/A   Overcast
3:53 PM 44.1 °F 36.2 °F 28.9 °F 55% 30.24 in 10.0 mi NNW 18.4 mph 27.6 mph N/A   Overcast
4:53 PM 43.0 °F 35.4 °F 30.0 °F 60% 30.25 in 10.0 mi NNW 16.1 mph - N/A   Overcast
5:53 PM 42.1 °F 34.2 °F 30.0 °F 62% 30.25 in 10.0 mi NNW 16.1 mph - N/A   Overcast
6:53 PM 39.0 °F 33.4 °F 30.0 °F 70% 30.26 in 10.0 mi NNW 8.1 mph - N/A   Clear
7:53 PM 37.0 °F 31.0 °F 30.0 °F 76% 30.27 in 10.0 mi NNW 8.1 mph - N/A   Clear
8:53 PM 37.0 °F 31.6 °F 30.9 °F 79% 30.27 in 10.0 mi NNW 6.9 mph - N/A   Overcast
9:53 PM 37.9 °F 33.5 °F 30.9 °F 76% 30.27 in 10.0 mi NNW 5.8 mph - N/A   Overcast
10:53 PM 35.1 °F 31.0 °F 28.9 °F 78% 30.27 in 10.0 mi NNW 4.6 mph - N/A   Partly Cloudy
11:53 PM 32.0 °F 28.7 °F 28.0 °F 85% 30.26 in 10.0 mi WSW 3.5 mph - N/A   Clear